Time,TemperatureF,DewpointF,PressureIn,WindDirection,WindDirectionDegrees,WindSpeedMPH,WindSpeedGustMPH,Humidity,HourlyPrecipIn,Conditions,Clouds,dailyrainin,SoftwareType,DateUTC
2015-05-04 00:02:00,60.6,35.0,29.87,West,262,10.0,14.0,39,0.00,,,0.00,weatherlink.com 1.10,2015-05-04 07:02:00,
2015-05-04 00:16:00,60.5,36.0,29.87,West,267,14.0,18.0,40,0.00,,,0.00,weatherlink.com 1.10,2015-05-04 07:16:00,
2015-05-04 00:32:00,60.5,35.0,29.87,West,262,12.0,19.0,39,0.00,,,0.00,weatherlink.com 1.10,2015-05-04 07:32:00,
2015-05-04 00:47:00,60.0,35.0,29.87,WSW,243,14.0,18.0,40,0.00,,,0.00,weatherlink.com 1.10,2015-05-04 07:47:00,
2015-05-04 01:02:00,59.6,36.0,29.87,West,264,11.0,21.0,42,0.00,,,0.00,weatherlink.com 1.10,2015-05-04 08:02:00,
2015-05-04 01:17:00,59.5,36.0,29.87,WNW,297,10.0,19.0,41,0.00,,,0.00,weatherlink.com 1.10,2015-05-04 08:17:00,
2015-05-04 01:32:00,58.9,36.0,29.87,West,260,10.0,16.0,43,0.00,,,0.00,weatherlink.com 1.10,2015-05-04 08:32:00,
2015-05-04 01:47:00,58.8,36.0,29.87,WSW,255,13.0,16.0,43,0.00,,,0.00,weatherlink.com 1.10,2015-05-04 08:47:00,
2015-05-04 02:02:00,58.0,37.0,29.87,WSW,245,11.0,14.0,45,0.00,,,0.00,weatherlink.com 1.10,2015-05-04 09:02:00,
2015-05-04 02:17:00,57.3,36.0,29.86,WSW,252,13.0,16.0,46,0.00,,,0.00,weatherlink.com 1.10,2015-05-04 09:17:00,
2015-05-04 02:32:00,55.5,38.0,29.86,WSW,243,11.0,20.0,52,0.00,,,0.00,weatherlink.com 1.10,2015-05-04 09:32:00,
2015-05-04 02:47:00,53.8,38.0,29.86,West,274,13.0,16.0,56,0.00,,,0.00,weatherlink.com 1.10,2015-05-04 09:47:00,
2015-05-04 03:02:00,53.5,39.0,29.86,SW,226,11.0,17.0,58,0.00,,,0.00,weatherlink.com 1.10,2015-05-04 10:02:00,
2015-05-04 03:17:00,53.3,39.0,29.86,WSW,252,13.0,19.0,59,0.00,,,0.00,weatherlink.com 1.10,2015-05-04 10:17:00,
2015-05-04 03:32:00,52.8,39.0,29.86,West,274,10.0,20.0,60,0.00,,,0.00,weatherlink.com 1.10,2015-05-04 10:32:00,
2015-05-04 03:47:00,52.8,39.0,29.86,West,262,11.0,18.0,60,0.00,,,0.00,weatherlink.com 1.10,2015-05-04 10:47:00,
2015-05-04 04:02:00,53.0,40.0,29.86,West,269,14.0,17.0,61,0.00,,,0.00,weatherlink.com 1.10,2015-05-04 11:02:00,
2015-05-04 04:17:00,52.1,41.0,29.85,WSW,245,14.0,18.0,65,0.00,,,0.00,weatherlink.com 1.10,2015-05-04 11:17:00,
2015-05-04 04:32:00,52.8,40.0,29.86,WSW,247,12.0,19.0,63,0.00,,,0.00,weatherlink.com 1.10,2015-05-04 11:32:00,
2015-05-04 04:47:00,55.8,36.0,29.86,West,274,10.0,15.0,48,0.00,,,0.00,weatherlink.com 1.10,2015-05-04 11:47:00,
2015-05-04 05:02:00,56.3,36.0,29.86,West,259,12.0,16.0,47,0.00,,,0.00,weatherlink.com 1.10,2015-05-04 12:02:00,
2015-05-04 05:17:00,56.8,35.0,29.86,WSW,244,13.0,18.0,45,0.00,,,0.00,weatherlink.com 1.10,2015-05-04 12:17:00,
2015-05-04 05:32:00,56.9,34.0,29.86,West,272,12.0,17.0,43,0.00,,,0.00,weatherlink.com 1.10,2015-05-04 12:32:00,
2015-05-04 05:47:00,57.2,34.0,29.86,WNW,290,9.0,15.0,42,0.00,,,0.00,weatherlink.com 1.10,2015-05-04 12:47:00,
2015-05-04 06:02:00,57.5,34.0,29.87,WSW,255,9.0,16.0,41,0.00,,,0.00,weatherlink.com 1.10,2015-05-04 13:02:00,
2015-05-04 06:17:00,58.1,33.0,29.87,West,259,16.0,16.0,39,0.00,,,0.00,weatherlink.com 1.10,2015-05-04 13:17:00,
2015-05-04 06:32:00,59.2,33.0,29.88,WNW,297,9.0,17.0,37,0.00,,,0.00,weatherlink.com 1.10,2015-05-04 13:32:00,
2015-05-04 06:47:00,59.4,33.0,29.88,West,259,11.0,17.0,37,0.00,,,0.00,weatherlink.com 1.10,2015-05-04 13:47:00,
2015-05-04 07:02:00,59.6,34.0,29.88,WSW,253,11.0,18.0,38,0.00,,,0.00,weatherlink.com 1.10,2015-05-04 14:02:00,
2015-05-04 07:17:00,59.7,33.0,29.89,WNW,293,11.0,17.0,37,0.00,,,0.00,weatherlink.com 1.10,2015-05-04 14:17:00,
2015-05-04 07:32:00,60.0,33.0,29.89,WSW,254,14.0,18.0,37,0.00,,,0.00,weatherlink.com 1.10,2015-05-04 14:32:00,
2015-05-04 07:47:00,60.6,33.0,29.89,West,281,9.0,18.0,36,0.00,,,0.00,weatherlink.com 1.10,2015-05-04 14:47:00,
2015-05-04 08:02:00,61.1,32.0,29.89,WSW,242,10.0,17.0,34,0.00,,,0.00,weatherlink.com 1.10,2015-05-04 15:02:00,
2015-05-04 08:17:00,61.5,33.0,29.89,WSW,245,15.0,17.0,34,0.00,,,0.00,weatherlink.com 1.10,2015-05-04 15:17:00,
2015-05-04 08:33:00,62.1,32.0,29.89,West,278,10.0,20.0,33,0.00,,,0.00,weatherlink.com 1.10,2015-05-04 15:33:00,
2015-05-04 08:48:00,62.8,33.0,29.89,West,269,7.0,15.0,33,0.00,,,0.00,weatherlink.com 1.10,2015-05-04 15:48:00,
2015-05-04 09:03:00,62.6,35.0,29.89,SSW,193,7.0,14.0,36,0.00,,,0.00,weatherlink.com 1.10,2015-05-04 16:03:00,
2015-05-04 09:18:00,62.6,37.0,29.90,West,274,12.0,16.0,39,0.00,,,0.00,weatherlink.com 1.10,2015-05-04 16:18:00,
2015-05-04 09:33:00,63.0,37.0,29.90,WSW,257,6.0,17.0,38,0.00,,,0.00,weatherlink.com 1.10,2015-05-04 16:33:00,
2015-05-04 09:48:00,63.0,36.0,29.90,WNW,286,11.0,17.0,37,0.00,,,0.00,weatherlink.com 1.10,2015-05-04 16:48:00,
2015-05-04 10:03:00,63.0,37.0,29.91,WSW,255,8.0,20.0,39,0.00,,,0.00,weatherlink.com 1.10,2015-05-04 17:03:00,
2015-05-04 10:18:00,64.0,38.0,29.91,SW,234,13.0,17.0,39,0.00,,,0.00,weatherlink.com 1.10,2015-05-04 17:18:00,
2015-05-04 10:33:00,65.0,39.0,29.91,WSW,250,12.0,16.0,39,0.00,,,0.00,weatherlink.com 1.10,2015-05-04 17:33:00,
2015-05-04 10:48:00,65.7,37.0,29.91,West,263,8.0,14.0,35,0.00,,,0.00,weatherlink.com 1.10,2015-05-04 17:48:00,
2015-05-04 11:03:00,65.8,39.0,29.91,West,263,8.0,20.0,37,0.00,,,0.00,weatherlink.com 1.10,2015-05-04 18:03:00,
2015-05-04 11:18:00,65.7,40.0,29.91,WNW,285,14.0,19.0,39,0.00,,,0.00,weatherlink.com 1.10,2015-05-04 18:18:00,
2015-05-04 11:33:00,66.6,41.0,29.92,SW,219,14.0,18.0,39,0.00,,,0.00,weatherlink.com 1.10,2015-05-04 18:33:00,
2015-05-04 11:48:00,66.4,39.0,29.91,West,266,12.0,22.0,37,0.00,,,0.00,weatherlink.com 1.10,2015-05-04 18:48:00,
2015-05-04 12:02:00,66.9,38.0,29.91,West,276,11.0,20.0,35,0.00,,,0.00,weatherlink.com 1.10,2015-05-04 19:02:00,
2015-05-04 12:18:00,67.0,38.0,29.92,WSW,244,14.0,21.0,35,0.00,,,0.00,weatherlink.com 1.10,2015-05-04 19:18:00,
2015-05-04 12:33:00,66.6,38.0,29.91,West,269,13.0,25.0,35,0.00,,,0.00,weatherlink.com 1.10,2015-05-04 19:33:00,
2015-05-04 12:48:00,65.4,39.0,29.92,West,271,14.0,26.0,38,0.00,,,0.00,weatherlink.com 1.10,2015-05-04 19:48:00,
2015-05-04 13:03:00,65.3,41.0,29.91,WNW,286,22.0,27.0,41,0.00,,,0.00,weatherlink.com 1.10,2015-05-04 20:03:00,
2015-05-04 13:18:00,65.2,41.0,29.91,West,263,16.0,29.0,41,0.00,,,0.00,weatherlink.com 1.10,2015-05-04 20:18:00,
2015-05-04 13:33:00,65.3,41.0,29.91,West,269,12.0,26.0,42,0.00,,,0.00,weatherlink.com 1.10,2015-05-04 20:33:00,
2015-05-04 13:48:00,65.4,42.0,29.91,WNW,284,14.0,29.0,43,0.00,,,0.00,weatherlink.com 1.10,2015-05-04 20:48:00,
2015-05-04 14:03:00,65.4,43.0,29.90,WSW,255,19.0,24.0,44,0.00,,,0.00,weatherlink.com 1.10,2015-05-04 21:03:00,
2015-05-04 14:18:00,65.4,42.0,29.90,West,269,20.0,28.0,43,0.00,,,0.00,weatherlink.com 1.10,2015-05-04 21:18:00,
2015-05-04 14:33:00,65.3,41.0,29.90,West,261,14.0,27.0,42,0.00,,,0.00,weatherlink.com 1.10,2015-05-04 21:33:00,
2015-05-04 14:48:00,65.9,41.0,29.90,West,266,19.0,31.0,40,0.00,,,0.00,weatherlink.com 1.10,2015-05-04 21:48:00,
2015-05-04 15:03:00,65.3,42.0,29.89,WSW,247,14.0,28.0,43,0.00,,,0.00,weatherlink.com 1.10,2015-05-04 22:03:00,
2015-05-04 15:18:00,65.7,42.0,29.88,West,274,15.0,29.0,42,0.00,,,0.00,weatherlink.com 1.10,2015-05-04 22:18:00,
2015-05-04 15:33:00,65.7,42.0,29.88,WNW,290,17.0,27.0,43,0.00,,,0.00,weatherlink.com 1.10,2015-05-04 22:33:00,
2015-05-04 15:48:00,65.7,42.0,29.88,WNW,293,23.0,31.0,43,0.00,,,0.00,weatherlink.com 1.10,2015-05-04 22:48:00,
2015-05-04 16:03:00,65.1,42.0,29.87,SW,233,20.0,28.0,43,0.00,,,0.00,weatherlink.com 1.10,2015-05-04 23:03:00,
2015-05-04 16:18:00,65.2,42.0,29.87,WSW,256,20.0,30.0,43,0.00,,,0.00,weatherlink.com 1.10,2015-05-04 23:18:00,
2015-05-04 16:33:00,65.2,42.0,29.87,SW,236,25.0,26.0,43,0.00,,,0.00,weatherlink.com 1.10,2015-05-04 23:33:00,
2015-05-04 16:48:00,64.6,43.0,29.87,West,278,16.0,29.0,45,0.00,,,0.00,weatherlink.com 1.10,2015-05-04 23:48:00,
2015-05-04 17:04:00,63.8,42.0,29.87,West,261,25.0,30.0,46,0.00,,,0.00,weatherlink.com 1.10,2015-05-05 00:04:00,
2015-05-04 17:18:00,63.7,41.0,29.88,WSW,257,13.0,30.0,44,0.00,,,0.00,weatherlink.com 1.10,2015-05-05 00:18:00,
2015-05-04 17:33:00,63.1,42.0,29.87,West,270,16.0,29.0,46,0.00,,,0.00,weatherlink.com 1.10,2015-05-05 00:33:00,
2015-05-04 17:48:00,62.5,42.0,29.87,West,274,17.0,27.0,48,0.00,,,0.00,weatherlink.com 1.10,2015-05-05 00:48:00,
2015-05-04 18:03:00,61.6,44.0,29.87,West,271,17.0,26.0,53,0.00,,,0.00,weatherlink.com 1.10,2015-05-05 01:03:00,
2015-05-04 18:18:00,60.8,41.0,29.88,West,278,15.0,27.0,49,0.00,,,0.00,weatherlink.com 1.10,2015-05-05 01:18:00,
2015-05-04 18:34:00,60.3,42.0,29.88,WNW,294,18.0,22.0,51,0.00,,,0.00,weatherlink.com 1.10,2015-05-05 01:34:00,
2015-05-04 18:48:00,59.5,42.0,29.89,West,262,13.0,22.0,53,0.00,,,0.00,weatherlink.com 1.10,2015-05-05 01:48:00,
2015-05-04 19:03:00,58.5,43.0,29.89,West,268,13.0,22.0,56,0.00,,,0.00,weatherlink.com 1.10,2015-05-05 02:03:00,
2015-05-04 19:18:00,57.5,42.0,29.90,WSW,245,16.0,21.0,56,0.00,,,0.00,weatherlink.com 1.10,2015-05-05 02:18:00,
2015-05-04 19:33:00,56.4,42.0,29.90,West,281,16.0,21.0,58,0.00,,,0.00,weatherlink.com 1.10,2015-05-05 02:33:00,